Location: La Brionne
(46.1728°N, 1.7849°E)
Time: 02:40:41
(UTC+00:00)

KKS-1 - Visible Passes

Search period start: 29 March 2023 00:00
Search period end: 08 April 2023 00:00
Orbit: 632 x 646 km, 98.2° (Epoch: 28 March)

Date Brightness Start Highest point End Pass type
(mag) Time Alt. Az. Time Alt. Az. Time Alt. Az.
29 Mar ? 22:47:16 10° N 22:47:33 12° N 22:47:33 12° N visible
30 Mar ? 23:10:41 10° N 23:11:11 13° N 23:11:11 13° N visible
31 Mar ? 23:34:17 10° N 23:34:47 12° NNW 23:34:47 12° NNW visible
01 Apr ? 22:20:30 10° NNE 22:20:50 12° NNE 22:20:50 12° NNE visible
01 Apr ? 23:58:13 10° NNW 23:58:24 11° NNW 23:58:24 11° NNW visible
02 Apr ? 22:43:42 10° N 22:44:26 15° N 22:44:26 15° N visible
03 Apr ? 23:07:04 10° N 23:08:02 16° N 23:08:02 16° N visible
04 Apr ? 21:53:58 10° NNE 21:54:03 10° NNE 21:54:03 10° NNE visible
04 Apr ? 23:30:38 10° N 23:31:38 15° NNW 23:31:38 15° NNW visible
05 Apr ? 22:16:55 10° NNE 22:17:39 15° NNE 22:17:39 15° NNE visible
05 Apr ? 23:54:28 10° NNW 23:55:13 13° NNW 23:55:13 13° NNW visible
06 Apr ? 22:40:05 10° NNE 22:41:15 18° NNE 22:41:15 18° NNE visible
07 Apr ? 23:03:24 10° N 23:04:49 20° N 23:04:49 20° N visible
